Terminal Aerodrome Forecast
Issued by NWS Milwaukee/Sullivan, WI

Home | Current Version | Previous Version | Text Only | Print | Product List | Glossary On
Versions: 1 2 3 4 5 6 7 8 9 10 11 12 13 14 15 16 17 18 19 20 21 22 23 24 25 26 27 28 29 30 31 32 33 34 35 36 37 38 39 40 41 42 43 44 45 46 47 48 49 50
000
FTUS43 KMKX 252320
TAFMKE
TAF
KMKE 252320Z 2600/2706 03013G23KT P6SM BKN025
     FM260300 04011KT P6SM BKN025
     FM261100 12004KT P6SM BKN025
     FM261300 16004KT P6SM OVC030
     FM261800 18007KT 6SM -SN OVC015
     FM262100 18008KT 2SM -SN OVC015
     FM270300 19004KT P6SM OVC015=

USA.gov is the U.S. government's official web portal to all federal, state and local government web resources and services.